Regional Weather Roundup
Issued by NWS

Home | Current Version | Previous Version | Text Only | Print | Product List | Glossary Off
Versions: 1 2 3 4 5 6 7 8 9 10 11 12 13 14 15 16 17 18 19 20 21 22 23 24 25 26 27 28 29 30 31 32 33 34 35 36 37 38 39 40 41 42 43 44 45 46 47 48 49 50

000
ASUS45 KTFX 041219
RWRMT
MONTANA HOURLY WEATHER ROUNDUP
NATIONAL WEATHER SERVICE GREAT FALLS MT
519 AM MST WED MAR 4 2015

NOTE: "FAIR" INDICATES FEW OR NO CLOUDS BELOW 12000 FEET WITH NO
SIGNIFICANT WEATHER AND/OR OBSTRUCTIONS TO VISIBILITY.

* THESE STATIONS ARE NOT UNDER NWS QUALITY CONTROL. THEY DO NOT
   REPORT WEATHER SUCH AS PRECIPITATION OR FOG.

MTZ001>007-043-041300-
WEST OF THE DIVIDE
CITY           SKY/WX    TMP DP  RH WIND       PRES   REMARKS
KALISPELL      CLEAR      7   3  83 CALM      30.20R
MISSOULA       CLEAR     12   9  88 CALM      30.22R
BUTTE          CLEAR      0  -6  75 SE3       30.07R
MULLAN PASS    CLEAR     10   3  73 SW6       30.02R
* ANACONDA     CLEAR      7   1  76 S6         N/A   WCI  -4
* ESSEX        N/A        4  -3  72 SE4        N/A
* EUREKA APT   CLEAR      7   1  76 CALM      30.24R
* HAMILTON APT CLEAR     14   7  73 S8        30.17S WCI   3
* LIBBY APT    CLEAR      9   5  84 CALM      30.23R
* LINCOLN      N/A       -6 -12  75 N1         N/A
* LOOKOUT PASS N/A       11   6  80 N/A        N/A
* POLSON       N/A       11   5  77 N/A        N/A
* RONAN APT    CLEAR     12   7  80 N/A        N/A
* SEELEY LAKE  N/A       -4  -9  79 N1         N/A
* THOMP F APT  CLEAR     10  -2  58 N4G11      N/A
* YAAK HILL    N/A       14  11  88 N/A        N/A
$$

MTZ008-052>055-041300-
SOUTHWEST MONTANA
CITY           SKY/WX    TMP DP  RH WIND       PRES   REMARKS
BOZEMAN        PTCLDY    -2  -8  75 CALM      30.14R
DILLON         CLEAR      0  -6  75 SE6       30.07R WCI -12
* W YELLOWSTON PTCLDY   -14 -21  70 S1         N/A
* THREE FORKS  CLEAR      1  -6  72 N/A        N/A
* BOULDER HILL N/A        6   0  76 SW8        N/A   WCI  -7
* MONIDA PASS  N/A        1  -5  75 NW8        N/A   WCI -13
* RAYNOLDS PAS N/A       -1 -43  11 N4         N/A
* WHITEHALL    N/A        4  -3  72 NW4        N/A
* WISE RIVER   N/A        4  -2  76 S2         N/A
$$

MTZ009>010-012-014-046-048-049-054-041300-
EAST SLOPES AND CENTRAL MONTANA
CITY           SKY/WX    TMP DP  RH WIND       PRES   REMARKS
CUT BANK       PTCLDY     0  -8  68 CALM      30.10S
GREAT FALLS    CLEAR      3  -2  79 SW13      30.14F WCI -14
HELENA         PTCLDY     5   0  80 CALM      30.17R
MALMSTROM AFB  CLEAR      5   0  80 SW6       30.17S WCI  -6
* CONRAD       CLEAR      3  -6  66 W6         N/A   WCI  -8
* DEARBORN     N/A       -5  -9  82 S1         N/A
* EAST GLACIER N/A       -4 -11  71 N11        N/A   WCI -22
* MONARCH      N/A       -1  -6  79 S8         N/A   WCI -15
* PENDROY      N/A        4  -3  72 W9         N/A   WCI -10
* ROGERS PASS  N/A        4  -6  63 W4G11      N/A
* SWEET GRASS  N/A        6  -9  49 W11        N/A   WCI  -9
* WHITE SULPH  N/A       -2  -9  72 N/A        N/A
$$

MTZ011-013-016-021-035-040-045-047-050-051-041300-
NORTH CENTRAL MONTANA
CITY           SKY/WX    TMP DP  RH WIND       PRES   REMARKS
HAVRE          CLEAR     -2  -8  75 SW8       30.22R WCI -17
LEWISTOWN      CLEAR     -4  -9  79 SW13      30.12R WCI -23
* N BAR RANCH  CLEAR      3  -6  66 NW20G28   30.06S WCI -18
* CHINOOK      CLEAR     -2  -8  75 W6        30.24R WCI -14
* FORT BENTON  CLEAR      7  -2  66 SW5       30.22S WCI  -2
* CHESTER      N/A        2  -7  65 W1         N/A
* DENTON       N/A        0  -9  65 S7         N/A   WCI -13
* GEYSER       N/A        4  -3  72 W7         N/A   WCI  -8
* JUDITH GAP   N/A       -2  -7  79 SW4        N/A
* LOMA         N/A        6  -3  66 W6         N/A   WCI  -5
$$

MTZ017>020-022>027-061-062-041300-
NORTHEAST MONTANA
CITY           SKY/WX    TMP DP  RH WIND       PRES   REMARKS
GLASGOW        CLEAR     -2  -9  72 W7        30.23R WCI -15
JORDAN         CLEAR      0  -4  83 NW7       30.21R WCI -13
SIDNEY         CLEAR     -6 -11  78 NW5       30.27R WCI -18
WOLF POINT     CLEAR     -2  -9  72 NW9       30.27R WCI -18
* BEAVER HILL  N/A       -7 -11  82 W8         N/A   WCI -23
* CIRCLE       N/A       -1  -7  75 N/A        N/A
* LINDSAY DVD  N/A       -5 -10  79 W12G17     N/A   WCI -24
* NAVAJO       N/A      -12 -17  78 NW4        N/A
* PLENTYWOOD A CLEAR    -13 -18  78 NW7       30.22R WCI -29
* POPLAR APT   CLEAR     -6 -13  71 NW5       30.28R WCI -18
* SACO         N/A       -5 -11  75 NW3        N/A
$$

MTZ028>042-056>058-041300-
SOUTHCENTRAL AND SOUTHEAST MONTANA
CITY           SKY/WX    TMP DP  RH WIND       PRES   REMARKS
BAKER          MOCLDY    -2  -8  75 NW12      30.14R WCI -20
BILLINGS       CLOUDY     9   0  66 S7        30.16R WCI  -2
LIVINGSTON     CLEAR      0  -8  68 NW15      30.10R WCI -19
MILES CITY     CLEAR      1  -4  79 NW7       30.20R WCI -12
* BIG TIMBER A CLEAR      3  -6  66 CALM      30.11R
* FORSYTH APT  CLEAR      5   0  80 W6        30.21R WCI  -6
* LAUREL APT   PTCLDY     3  -8  60 SW6        N/A   WCI  -8
* ROUNDUP APT  CLEAR      7  -8  50 NW6        N/A   WCI  -4
* ALZADA       N/A        5  -1  76 W9         N/A   WCI  -9
* HYSHAM       N/A        3  -6  66 N/A        N/A
* REED POINT   N/A       -2  -5  87 SW1        N/A
* ROSCOE HILL  N/A        4  -9  54 SW6        N/A   WCI  -7
$$

REGIONAL REPORTS...DAKOTAS
CITY           SKY/WX    TMP DP  RH WIND       PRES   REMARKS
WILLISTON      FAIR      -8 -15  71 NW13      30.23R WCI -28
DICKINSON      CLEAR     -6 -13  71 NW13      30.11R WCI -26
BEACH          FAIR      -4  -9  79 NW13      30.16R WCI -23
CROSBY         CLEAR    -13 -20  70 NW17      30.23R WCI -37
TIOGA          CLEAR    -13 -18  78 NW14      30.20R WCI -35
WATFORD CITY   CLEAR     -8 -13  78 NW10      30.19R WCI -26
BISMARCK       CLEAR     -2  -9  72 NW15G25   30.20R WCI -22
GRAND FORKS    PTCLDY    -9 -15  74 NW7       30.15R WCI -24
FARGO          CLEAR     -6 -11  78 W10       30.15R WCI -23
BUFFALO SD     PTCLDY     1  -6  72 NW10      30.03R WCI -15
RAPID CITY     PTCLDY     1  -6  72 N10       30.10R WCI -15
$$

REGIONAL REPORTS...WYOMING/IDAHO/WASHINGTON
CITY           SKY/WX    TMP DP  RH WIND       PRES   REMARKS
GILLETTE       PTCLDY     0  -9  65 W10       30.07R WCI -16
SHERIDAN       CLOUDY     9  -2  61 N15       30.12R WCI  -8
CODY           PTCLDY     3  -2  79 S3        30.06S
YELLOWSTONE LA PTCLDY   -18 -24  73 NW3       29.96R
SALMON         PTCLDY    14   7  73 CALM      30.17R
MULLAN PASS    CLEAR     10   3  73 SW6       30.02S
SAND POINT     CLEAR     16  14  92 CALM      30.23R
SPOKANE        CLEAR     21  10  62 S7        30.19S WCI  12
$$

REGIONAL REPORTS...ALBERTA
CITY           SKY/WX    TMP DP  RH WIND       PRES   REMARKS
CALGARY        N/A        1  -6  72 S5        30.05F WCI  -9
LETHBRIDGE     CLEAR      1  -4  79 W9        30.13F WCI -14
MEDICINE HAT   CLEAR     -4  -8  83 S5        30.23S WCI -15
EDMONTON       N/A       -6 -15  64 S12       30.13F WCI -25
WATERTON GATE  N/A      -15 -20  77 CALM       N/A
CARDSTON       N/A       -9 -15  74 SE1        N/A
MILK RIVER     N/A       -6 -13  71 W9         N/A   WCI -22
$$

REGIONAL REPORTS...SASKATCHEWAN
CITY           SKY/WX    TMP DP  RH WIND       PRES   REMARKS
SWIFT CURRENT  CLEAR    -15 -18  86 W3        30.18R
MOOSE JAW      N/A      -22 -29  69 W12       30.29R WCI -45
REGINA         N/A      -22 -27  77 NW7       30.26R WCI -40
VAL MARIE      N/A       -8 -13  78 NW5        N/A   WCI -20
ASSINIBOIA     N/A      -17 -24  70 W7         N/A   WCI -34
CORONACH       N/A      -13 -18  78 NW9        N/A   WCI -31

$$



USA.gov is the U.S. government's official web portal to all federal, state and local government web resources and services.